SCP
0 0 0 0 0 0 0 0 0 0 0 0 0 0 0 0 0 0 0 0 0 0 0 0 0 0 0 0 0 0 0 0 0 0 0 0 0 0 0 0 0 0 0
0 0 0 0 0 0 0 0 0 0 0 0 0 0 0 0 0 0 0 0 0 0 0 0 0 0 0 0 0 0 0 0 0 0 0 0 0 0 0 0 0 0 0
0 0 0 0 0 0 0 0 0 0 0 0 0 0 0 0 0 0 0 0 0 0 0 0 0 0 0 0 0 0 0 0 0 0 0 0 0 0 0 0 0 0 0
1 1 1 1 0 0 0 0 0 0 0 0 0 0 0 0 0 0 0 0 0 0 0 0 0 0 0 0 0 0 0 0 0 0 0 0 0 0 0 0 0 0 0
1 1 1 0 0 0 0 0 0 0 0 0 0 0 0 0 0 0 0 0 0 0 0 0 0 0 0 0 0 0 0 0 0 0 0 0 0 0 0 0 0 0 0
0 0 0 0 0 0 0 0 0 0 0 0 0 0 0 0 0 0 0 0 0 0 0 0 0 0 0 0 0 0 0 0 0 0 0 0 0 0 0 0 0 0 0
0 0 0 1 1 1 1 1 1 0 0 0 0 0 0 0 0 0 0 0 0 0 0 0 0 0 0 0 0 0 0 0 0 0 0 0 0 0 0 0 0 0 0
0 0 1 1 1 1 1 1 1 1 0 0 0 0 0 0 0 0 0 0 0 0 0 0 0 0 0 0 0 0 0 0 0 0 0 0 0 0 0 0 0 0 0
0 0 0 1 1 1 1 1 1 1 1 0 0 0 0 0 0 0 0 0 0 0 0 0 0 0 0 0 0 0 0 0 0 0 0 0 0 0 0 0 0 0 0
0 0 0 0 1 1 1 1 1 1 1 0 0 0 0 0 0 0 0 0 0 0 0 0 0 0 0 0 0 0 0 1 1 1 1 0 0 0 0 0 0 0 0
0 0 0 0 1 1 1 1 1 1 1 1 0 0 0 0 0 0 0 0 0 0 0 0 0 0 0 0 0 0 0 1 1 1 1 1 1 1 0 0 0 0 0
0 0 0 0 1 1 1 1 1 1 1 1 1 0 0 0 0 0 0 0 0 0 0 0 0 0 0 0 0 0 0 0 1 1 1 1 1 1 1 0 0 0 0
0 0 0 1 1 1 1 1 1 1 1 1 1 1 0 0 0 0 0 0 0 0 0 0 0 0 0 0 0 0 0 0 0 0 0 0 1 1 1 1 0 0 0
1 1 1 1 1 1 1 1 1 1 1 1 1 1 1 0 0 0 0 0 0 0 0 0 0 0 0 0 0 0 0 0 0 0 0 0 0 1 1 1 1 0 0
1 1 1 1 1 1 0 0 0 1 1 1 1 1 1 1 0 0 0 0 0 0 0 0 0 0 0 0 0 0 0 0 0 0 0 0 0 0 0 0 0 0 0
1 1 1 1 1 0 0 0 0 1 1 1 1 1 1 1 1 0 0 0 0 0 0 0 0 0 0 0 0 0 0 0 0 0 0 0 0 0 0 0 0 0 0
1 1 1 1 1 1 1 1 1 1 1 1 1 1 1 1 1 1 1 1 1 0 0 0 0 0 0 0 0 0 0 0 0 0 0 0 0 0 0 0 0 0 0
1 1 1 1 1 1 1 1 1 1 1 1 1 1 1 1 1 1 1 1 1 1 0 0 0 0 0 0 0 0 0 0 0 0 0 0 0 0 0 0 0 0 0
1 1 1 1 1 1 1 1 1 1 1 1 1 1 1 1 1 1 1 1 1 1 1 1 0 0 0 0 0 0 0 0 0 0 0 0 0 0 0 0 0 0 0
1 1 1 1 1 1 1 1 1 1 1 1 1 1 1 1 1 1 1 1 1 1 1 1 1 1 0 0 0 0 0 0 0 0 0 0 0 0 0 0 0 0 0
1 1 1 1 1 1 1 1 1 1 1 1 1 1 1 1 1 1 1 1 1 1 1 1 1 1 1 0 0 0 0 0 0 0 0 0 0 0 0 0 0 0 0
1 1 1 1 1 1 1 1 1 1 1 1 1 1 1 1 1 1 1 1 1 1 1 1 1 1 0 0 0 0 0 0 0 0 0 0 0 0 0 0 0 0 0
1 1 1 1 1 1 1 1 1 1 1 1 1 1 1 1 1 1 1 1 1 1 1 1 1 0 0 0 0 0 0 0 0 0 0 0 0 0 0 0 0 0 0
1 1 1 1 1 1 1 1 1 1 1 1 1 1 1 1 1 1 1 1 1 1 1 1 0 0 0 0 0 0 0 0 0 0 0 0 0 0 0 0 0 0 0
1 1 1 1 1 1 1 1 1 1 1 1 1 1 0 1 1 1 1 1 1 1 1 0 0 0 0 0 0 0 0 0 0 0 0 0 0 0 0 0 0 0 0
1 1 1 1 1 1 1 1 1 1 1 1 1 0 -0 0 1 1 1 1 1 1 0 0 0 0 0 0 0 0 0 0 0 0 0 0 0 0 0 0 0 0 0
Wind_Speed
11 11 10 10 9 8 8 7 6 5 4 3 3 2 1 1 1 1 2 2 2 3 3 2 2 2 2 2 2 3 3 2 2 3 2 2 1 0 0 1 1 2 2
9 10 10 10 10 10 9 8 7 6 5 4 3 2 2 1 1 1 2 2 3 3 4 3 3 2 2 2 2 3 2 1 1 2 2 1 3 2 1 0 1 2 2
14 12 11 10 10 11 11 10 8 7 6 5 3 2 2 1 1 1 1 2 3 3 3 3 3 3 3 2 2 3 3 2 1 1 3 2 2 1 2 1 1 1 1
13 13 12 11 11 11 11 9 8 7 6 6 5 5 4 3 3 2 2 2 2 3 3 3 3 3 3 3 2 3 2 3 2 0 1 2 3 2 1 2 1 1 2
14 14 14 13 12 11 10 9 8 7 7 7 7 6 4 3 2 2 2 2 2 2 3 3 3 3 3 3 2 2 2 2 3 2 1 1 0 1 2 1 2 2 2
12 11 11 10 10 9 9 9 8 7 7 7 7 7 6 5 4 3 3 2 2 2 2 3 3 3 3 3 3 2 3 2 2 2 2 2 2 2 2 2 2 1 2
11 11 10 10 10 10 10 9 9 8 7 7 7 7 7 6 6 5 4 3 2 2 3 3 3 3 3 3 3 3 2 3 3 3 2 2 2 2 2 2 1 1 2
10 10 10 10 10 11 11 10 10 8 7 7 7 6 6 4 4 4 4 4 3 3 3 3 3 3 3 3 3 2 2 2 3 3 3 2 2 2 3 3 3 0 2
10 10 10 9 9 10 10 11 10 8 7 7 6 5 5 5 5 4 4 3 3 3 3 3 3 3 3 3 3 2 2 2 2 3 3 2 2 2 2 2 3 3 2
8 9 9 9 8 8 8 8 8 7 6 7 6 6 5 6 5 4 4 4 4 3 3 3 3 3 3 3 3 2 2 2 2 2 2 2 2 2 2 2 2 3 4
8 8 8 8 8 8 8 8 8 6 6 6 5 5 5 5 5 5 5 4 4 4 4 4 3 3 3 3 3 2 2 3 2 2 2 2 2 2 2 1 2 2 2
8 8 7 7 6 7 7 7 7 7 7 6 6 5 5 5 5 5 5 4 4 4 4 4 3 3 3 3 3 3 2 3 2 2 2 2 2 2 2 2 2 2 2
7 6 6 6 6 6 7 7 7 7 6 5 5 5 5 5 5 5 4 4 4 4 4 3 4 3 3 3 3 3 3 3 3 2 2 3 2 2 2 2 2 2 2
7 7 6 5 5 5 5 6 6 6 6 6 6 5 5 5 5 5 4 4 4 4 4 4 4 4 3 3 3 3 3 2 2 2 2 2 3 3 3 2 2 2 1
6 7 6 5 5 5 4 4 5 5 6 6 6 6 5 4 4 4 4 3 4 4 4 4 4 3 3 3 3 3 3 3 2 2 2 3 2 3 2 2 2 2 2
6 6 7 7 6 6 6 5 5 5 5 6 6 5 4 4 4 4 4 4 3 3 3 4 4 4 3 4 5 4 2 2 2 2 2 2 1 2 2 2 3 3 3
6 6 5 6 7 7 6 6 6 4 5 5 5 5 4 5 5 5 4 4 4 3 3 3 3 3 4 5 5 5 3 3 3 3 2 2 2 2 2 2 2 3 4
5 6 5 5 5 5 5 5 5 5 5 5 5 5 4 4 4 4 5 4 3 3 4 3 3 3 4 5 5 4 3 3 3 4 4 3 3 2 2 1 1 1 2
4 4 4 5 4 5 5 5 5 5 5 5 5 5 5 4 4 4 5 4 3 3 3 4 4 4 4 5 5 5 2 2 3 3 3 3 3 3 3 2 2 2 3
2 2 2 3 3 3 4 5 4 5 5 6 5 5 5 5 5 5 4 3 3 3 4 3 4 5 4 5 7 6 3 2 2 2 3 4 4 4 3 3 3 3 4
2 2 3 3 3 4 4 5 5 5 6 5 4 4 5 5 5 4 3 3 3 3 3 4 4 4 5 5 6 6 4 3 3 3 3 3 5 5 5 4 4 5 4
2 2 3 2 2 3 4 4 5 5 4 4 4 4 4 4 3 3 3 3 4 4 3 3 3 3 4 4 5 6 6 5 4 4 3 3 5 5 5 4 4 4 2
1 1 2 2 1 2 4 4 5 4 4 4 4 4 4 4 4 4 5 4 4 4 3 3 3 2 2 3 5 6 6 7 4 3 4 5 5 4 4 5 5 3 2
1 1 2 1 1 1 2 3 3 4 4 4 3 3 3 3 3 3 4 4 4 4 4 4 3 3 2 2 2 2 2 3 3 2 3 4 4 3 3 3 3 3 3
1 1 1 1 1 0 1 2 2 3 3 3 3 3 3 3 3 3 3 4 5 6 6 5 4 4 4 5 5 4 3 3 3 2 1 0 1 2 2 2 2 2 2
0 1 1 1 0 0 1 1 0 2 2 2 2 2 2 2 3 3 1 1 2 5 6 6 5 4 5 5 6 6 5 5 5 3 2 2 3 3 4 3 3 3 3
Wind_Direction
175 167 166 162 158 157 155 159 157 161 152 144 143 139 151 154 172 180 170 157 145 135 131 129 122 123 131 145 134 119 107 94 96 85 54 16 37 68 204 180 165 178 182
172 169 168 165 167 168 166 165 165 168 166 167 162 155 155 167 181 180 153 157 155 150 149 145 143 142 138 129 135 129 125 128 122 124 106 21 356 345 300 181 180 192 181
173 173 172 173 172 174 174 172 173 172 171 161 138 122 95 68 82 156 178 179 167 160 149 158 156 156 156 160 165 159 150 160 196 137 136 144 216 285 320 281 222 196 181
172 174 174 175 178 181 177 173 173 173 173 163 156 157 163 179 199 189 186 181 177 172 163 164 164 166 166 165 181 171 163 152 175 237 162 165 167 162 273 317 293 241 212
176 178 180 180 180 180 178 176 171 175 176 172 172 169 175 188 187 172 169 183 194 186 176 175 173 176 173 170 173 160 160 160 163 175 161 125 123 149 158 240 293 301 258
177 179 179 173 172 174 175 172 172 181 181 177 175 175 178 178 172 183 185 195 207 213 200 182 186 182 178 177 177 172 169 174 172 173 163 154 162 181 162 192 237 266 282
174 175 172 172 171 173 175 172 175 187 188 183 182 183 185 182 186 191 190 190 199 215 219 202 195 192 190 185 173 169 177 178 175 189 194 187 200 181 160 164 212 261 293
172 174 173 173 176 177 176 175 177 184 188 186 191 189 187 187 197 199 192 197 202 210 206 198 195 196 190 187 176 177 190 177 184 197 200 197 210 192 175 172 168 201 316
167 168 170 171 176 178 179 179 179 181 185 188 190 194 194 191 201 197 190 193 199 200 193 189 187 192 192 186 176 187 197 181 196 206 209 213 215 199 201 185 172 172 214
167 171 172 171 171 173 173 170 174 180 184 183 192 196 203 202 199 190 193 196 198 191 178 184 183 188 190 187 181 190 198 183 211 208 200 225 226 210 209 199 192 181 184
170 172 172 171 161 161 166 166 170 172 179 188 194 198 206 206 199 197 202 199 196 185 186 186 182 182 189 192 186 195 190 191 215 219 200 225 217 217 225 205 196 198 178
166 165 159 151 152 156 164 168 173 182 189 191 193 199 203 201 202 205 206 195 192 191 188 185 187 193 195 193 189 198 200 194 210 220 212 229 218 219 224 210 210 212 201
151 150 146 150 155 161 164 171 174 184 194 195 198 199 199 200 202 203 199 193 191 191 190 185 190 198 195 196 199 197 198 203 214 216 214 225 199 213 219 208 213 219 213
144 146 152 160 157 161 167 175 183 186 192 191 195 201 203 201 203 200 194 193 190 191 193 193 196 198 195 197 199 198 200 213 224 219 211 206 193 201 211 213 214 203 189
141 155 161 166 162 161 166 173 180 184 195 192 197 208 206 200 195 193 193 192 192 197 195 193 200 201 200 203 193 202 210 209 224 235 223 213 199 191 200 203 199 182 180
161 170 171 169 171 172 174 174 183 191 184 190 205 208 200 193 194 194 190 187 191 194 190 199 198 202 214 203 195 193 203 204 206 224 244 234 202 198 208 221 215 192 191
165 167 176 184 182 181 178 182 188 180 178 188 203 206 205 203 199 193 188 193 194 186 189 196 195 200 213 193 192 195 190 199 207 210 213 240 239 227 221 240 254 251 236
176 176 176 179 186 181 174 172 169 172 182 193 206 202 195 204 204 195 198 200 193 191 194 198 194 195 214 198 192 190 196 213 215 212 209 215 234 238 207 216 252 275 277
182 183 178 169 171 173 171 162 171 176 187 199 207 203 193 195 196 200 205 206 198 202 200 200 196 196 220 207 194 179 193 220 231 222 201 194 209 232 194 171 208 270 287
164 177 160 139 150 174 162 159 179 182 200 205 207 201 194 194 197 201 205 205 200 204 195 198 199 199 213 212 197 183 189 215 236 240 224 210 210 219 200 182 192 228 257
147 147 136 142 169 171 160 166 183 203 210 202 202 200 198 201 200 201 203 191 189 192 197 199 211 212 213 211 201 190 188 202 216 225 235 237 220 216 220 211 209 226 231
78 127 137 150 181 171 173 181 203 217 210 194 201 210 208 212 209 196 198 191 183 187 199 209 227 234 222 211 211 202 203 197 198 217 223 226 223 224 227 227 236 239 222
90 96 136 141 178 182 178 193 215 207 200 195 205 210 212 217 203 197 200 198 192 191 199 196 212 235 232 221 221 211 213 215 209 220 222 225 226 225 231 239 240 228 213
51 74 118 139 215 216 202 216 215 192 182 194 209 218 214 220 212 204 201 199 198 196 198 197 206 218 227 227 219 212 212 227 228 234 240 237 235 235 246 256 248 226 219
12 69 118 137 243 320 299 266 219 177 183 200 210 215 220 214 205 209 211 207 209 197 193 199 198 196 218 230 213 196 206 209 210 183 153 207 251 255 261 259 250 238 230
9 64 100 111 272 316 321 310 267 173 183 215 223 221 220 221 209 203 230 274 228 214 203 200 196 206 218 220 212 215 224 214 192 166 193 219 226 233 239 243 247 239 232